Regional Weather Roundup
Issued by NWS Grand Forks, ND

Home | Current Version | Previous Version | Text Only | Print | Product List | Glossary On
Versions: 1 2 3 4 5 6 7 8 9 10 11 12 13 14 15 16 17 18 19 20 21 22 23 24 25 26 27 28 29 30 31 32 33 34 35 36 37 38 39 40 41 42 43 44 45 46 47 48 49 50
000
ASUS43 KFGF 291710
RWRFGF
PRAIRIE TO PINES  WEATHER ROUNDUP
NATIONAL WEATHER SERVICE EASTERN NORTH DAKOTA/GRAND FORKS ND
1100 AM CST THU JAN 29 2015

 **SATELLITE DATA USED TO AUGMENT SKY COVER AT AUTOMATED STATIONS**
 *****  WEATHER ACROSS EASTERN NORTH DAKOTA  *****

CITY           SKY/WX    TMP DP  RH WIND       PRES   REMARKS
GRAND FORKS    CLOUDY    13   5  70 N21       30.51R WCI  -5
GRAND FRKS AFB CLOUDY    14   5  67 N17G24    30.51R WCI  -3
GRAND FRKS NWS   N/A     12 N/A N/A N21         N/A  WCI  -6
DEVILS LAKE    CLOUDY    14   9  79 N13       30.47R WCI   0
FARGO          FLURRIES  18   7  62 N25       30.47R WCI   0
WAHPETON ARPT  CLOUDY    21  14  73 N25G31    30.45R WCI   4
$$

 ***** WEATHER ACROSS CENTRAL AND WESTERN NORTH DAKOTA  *****

CITY           SKY/WX    TMP DP  RH WIND       PRES   REMARKS
BISMARCK       CLOUDY    28  19  69 N7        30.49R WCI  21
MINOT          LGT SNOW  17  11  77 NW12      30.49S WCI   4
JAMESTOWN      LGT SNOW  20  13  74 NW23      30.46R WCI   3
MINOT AFB      FLURRIES  16  14  93 NW12      30.49S WCI   3
GARRISON         N/A     24  19  81 N9        30.47R WCI  14
WILLISTON      CLOUDY    24  17  74 NW7       30.50R WCI  16
DICKINSON      MOSUNNY   30  21  69 W14       30.43R WCI  19
HETTINGER      MOSUNNY   29  21  72 NW14      30.47R WCI  18
$$

 *****  OTHER AIRPORT OBSERVATIONS IN OUR AREA  *****

CITY           SKY/WX    TMP DP  RH WIND       PRES   REMARKS
WALHALLA         N/A      9   5  85 N18       30.54R WCI -10
GRAFTON AIRPOR NOT AVBL
VALLEY CITY AR FLURRIES  19  18  93 N18       30.45R WCI   4
CANDO          FAIR      14   9  79 NW14G23   30.50R WCI  -1
CAVALIER APRT  PTSUNNY    9   1  72 N22G28    30.53R WCI -11
GWINNER        CLOUDY    27  23  86 N22       30.46R WCI  12
SHEYENNE NWR     N/A     21  15  79 N12       29.95  WCI   9
ROLLA          FLURRIES   9   5  85 NW16      30.47S WCI  -9
 ***** THE ABOVE OBSERVATIONS ARE NON NWS ARE NOT QUALITY
       CONTROLLED AND MAY MIS-REPORT RAIN FOR SNOW...
$$

  *****  WEATHER ACROSS NORTHERN MINNESOTA  *****

CITY           SKY/WX    TMP DP  RH WIND       PRES   REMARKS
FLAG ISLAND    CLOUDY     3  -2  78 NW22      30.37R WCI -19
WARROAD        SUNNY      5   0  78 NW17      30.40R WCI -14
ROSEAU         SUNNY      7   1  78 NW17      30.42R WCI -12
HALLOCK        MOSUNNY    9   1  72 N22G29    30.50R WCI -11
THF RVR FALLS  PTSUNNY    9   3  78 NW18      30.44R WCI -10
BAUDETTE       CLOUDY     4  -2  76 NW18G25   30.35R WCI -16
WASKISH        CLOUDY     9   5  85 NW14G21   30.34R WCI  -8
CROOKSTON      CLOUDY    10   7  85 N23G29    30.49R WCI -10
STEPHEN NDAWN    N/A      9   1  72 N18         N/A  WCI -10
GREENBUSH NDAW   N/A      7   3  85 NW16        N/A  WCI -11
$$
  *****  WEATHER ACROSS CENTRAL AND WEST MINNESOTA  *****

CITY           SKY/WX    TMP DP  RH WIND       PRES   REMARKS
FOSSTON        LGT SNOW   9   5  85 NW16G22   30.41R WCI  -9
BEMIDJI        CLOUDY    10   6  81 NW17      30.32R WCI  -7
PARK RAPIDS    LGT SNOW  17  11  77 NW17G26   30.30R WCI   1
ELBOW LAKE     CLOUDY    18  14  84 NW20G26   30.39R WCI   2
WADENA         CLOUDY    16  12  86 NW15G26   30.32R WCI   1
DETROIT LAKES  FLURRIES  14  10  85 N24G31    30.39R WCI  -5
MOORHEAD       MIX PCPN  18  12  79 N25       30.46R WCI  -1
FERGUS FALLS   FLURRIES  18  12  79 N23G30    30.44R WCI   0
MORRIS MN      CLOUDY    21  16  79 N25G33    30.38R WCI   4
STAPLES        CLOUDY    18  12  79 NW18G25   30.30R WCI   2
$$
  *****  WEATHER ELSEWHERE ACROSS MINNESOTA  *****

CITY           SKY/WX    TMP DP  RH WIND       PRES   REMARKS
DULUTH         CLOUDY    23  16  74 NW17G25   30.11R WCI   9
INTRNTL FALLS  LGT SNOW  11   5  77 NW18      30.26R WCI  -7
ELY            FLURRIES  18  10  73 NW12G25   30.12R WCI   5
CLOQUET        CLOUDY    25  18  74 W17G25    30.14R WCI  11
WHEATON        FLURRIES  21  18  86 NW20G28   30.45R WCI   6
BRAINERD       CLOUDY    21  15  78 NW17G25   30.26R WCI   7
HIBBING        LGT SNOW  17  10  74 NW24      30.18R VSB 1   WCI  -1
ALEXANDRIA     CLOUDY    19  13  77 NW18G26   30.33R WCI   4
SAINT CLOUD    PTSUNNY   26  18  71 NW24      30.26R WCI  11
MINNEAPOLIS    CLOUDY    31  22  69 NW22      30.21R WCI  18
$$

  *****  WEATHER ACROSS SOUTH DAKOTA  *****

CITY           SKY/WX    TMP DP  RH WIND       PRES   REMARKS
SIOUX FALLS    CLOUDY    32  23  69 N20G33    30.39R WCI  20
BROOKINGS      NOT AVBL
WATERTOWN      CLOUDY    26  20  77 NW22G31   30.39R WCI  12
HURON          CLOUDY    30  21  69 NW21G28   30.45R WCI  17
SISSETON         N/A     25  22  88 N22       30.42  WCI  10
ABERDEEN       CLOUDY    27  20  75 N20       30.47R WCI  13
MITCHELL         N/A     34  25  69 MISG      30.45R
PIERRE         CLOUDY    35  23  61 N20G26    30.48R WCI  24
MOBRIDGE       CLOUDY    31  20  63 NW17G26   30.46R WCI  19
RAPID CITY     SUNNY     34  21  59 SE3       30.47R
$$

  *****  SOME WEATHER IN NEARBY STATES *****

CITY           SKY/WX    TMP DP  RH WIND       PRES   REMARKS
GLASGOW MT     FOG       25  23  92 SE10      30.44F VSB<1/4 WCI  15
GREAT FALLS MT SUNNY     38  27  64 S9        30.31F
CHEYENNE WY    MOSUNNY   40  24  53 CALM      30.47R
SCOTTSBLUFF NE SUNNY     37  23  56 NW14      30.51R
OMAHA NE       CLOUDY    37  26  64 N21G30    30.38R
DES MOINES IA  CLOUDY    34  27  75 N17G26    30.26R WCI  23
DAVENPORT IA   CLOUDY    35  29  78 NW18      30.06R WCI  24
CHICAGO IL     CLOUDY    34  27  75 NW22G28   29.90R WCI  22
EAU CLAIRE WI  CLOUDY    33  24  69 NW13G23   30.10R WCI  24
LA CROSSE WI   CLOUDY    36  26  67 NW16      30.09R
$$

  *****  SOME NATIONAL WEATHER *****

CITY           SKY/WX    TMP DP  RH WIND       PRES   REMARKS
LA GUARDIA NY  PTSUNNY   28   9  44 E5        30.28F WCI  23
RALEIGH NC     PTSUNNY   42  13  30 SW9       30.30F
ATLANTA GA     PTSUNNY   49  29  46 S12       30.27F
NEW ORLEANS LA MOSUNNY   70  56  61 S9        30.28R
OKLAHOMA CITY  PTSUNNY   48  31  51 N28G38    30.39R
ALBUQUERQUE NM CLOUDY    50  28  42 E28G36    30.40R
SALT LAKE CITY PTSUNNY   35  32  88 CALM      30.36S
LOS ANGELES CA CLOUDY    65  44  46 NE5       30.05R
BOISE ID       CLOUDY    36  33  89 CALM      30.44R
SEATTLE WA     MOSUNNY   43  38  82 N10       30.35S
$$

*** WEATHER ACROSS MANITOBA...SASKATCHEWAN AND ONTARIO ***
                ***ONTARIO***

CITY           SKY/WX    TMP DP  RH WIND       PRES   REMARKS
GERALDTON      LGT SNOW   1  -4  78 N13G23    30.01R DRFTSNOWWCI -16
THUNDER BAY    MOSUNNY   18   9  68 NW15G24   30.07R WCI   3
SIOUX LOOKOUT  LGT SNOW   5  -2  72 N17       30.22R WCI -14
TORONTO        CLOUDY    32  14  47 SE8       29.81F WCI  25
BIG TROUT LK   SUNNY    -11 -18  70 NW12      30.26R WCI -31
PICKLE LAKE    CRYSTALS  -2 -11  65 VRB6      30.19R WCI -14
DRYDEN         LGT SNOW   7   1  78 NW12G17   30.24R WCI  -9
KENORA         LGT SNOW   3   0  85 NW15      30.32R DRFTSNOWWCI -15
$$
                *** MANITOBA***

CITY           SKY/WX    TMP DP  RH WIND       PRES   REMARKS
BRANDON        FLURRIES   9   1  72 NE10      30.53R WCI  -6
DAUPHIN        SUNNY     -2  -8  78 VRB2      30.60R
ISLAND LAKE    MOSUNNY  -11 -18  70 W12G17    30.42R WCI -31
PILOT MOUND      N/A      5   1  85 N12         N/A  WCI -11
THE PAS        MOSUNNY  -13 -18  77 NW5       30.59R WCI -25
THOMPSON       SUNNY    -13 -22  64 W10       30.45R WCI -32
WINNIPEG       MOSUNNY    3  -4  72 NW21      30.54R WCI -18
LYNN LAKE      SUNNY    -17 -24  70 W8        30.42S WCI -34
CHURCHILL      MOSUNNY  -22 -29  69 W10       30.26F WCI -44
GILLAM         SUNNY    -18 -26  69 W10       30.35S WCI -39
$$
                ***SASKATCHEWAN***

CITY           SKY/WX    TMP DP  RH WIND       PRES   REMARKS
ESTEVAN        LGT SNOW  16  10  79 N7        30.49  WCI   6
KINDERSLEY     PTSUNNY   12   9  85 E9        30.36F WCI   0
LLOYDMINSTER   CLOUDY     7   1  78 S10       30.36F WCI  -8
PRINCE ALBERT  FLURRIES   1  -4  78 CALM      30.52S
REGINA         FLURRIES  14   9  79 CALM      30.49R
YORKTON        CLOUDY     5   0  78 N3        30.51S
N. BATTLEFORD  PTSUNNY   10   7  85 SE10      30.46R WCI  -3
LA RONGE       MOSUNNY  -13 -18  77 SW3       30.52F
SASKATOON      CLOUDY     5   0  78 E5        30.49F WCI  -4
SWIFT CURRENT  PTSUNNY   21  19  93 SE12      30.36S WCI   9
$$
NOTE: THESE ARE AUTOMATED STATIONS WITH LIMITED QUALITY CONTROL
      "FAIR" INDICATES FEW OR NO CLOUDS BELOW 12,000 FEET WITH NO
      SIGNIFICANT WEATHER AND/OR OBSTRUCTIONS TO VISIBILITY.
      SKY/WX - SKY CONDITION AND SIGNIFICANT WEATHER.
      TMP - AIR TEMPERATURE.    DP   - DEWPOINT TEMPERATURE.
      RH  - RELATIVE HUMIDITY.  PRES - PRESSURE.
      HX  - HEAT INDEX.         WCI  - WIND CHILL INDEX.
$


USA.gov is the U.S. government's official web portal to all federal, state and local government web resources and services.